Regional Weather Roundup
Issued by NWS

Home | Current Version | Previous Version | Text Only | Print | Product List | Glossary Off
Versions: 1 2 3 4 5 6 7 8 9 10 11 12 13 14 15 16 17 18 19 20 21 22 23 24 25 26 27 28 29 30 31 32 33 34 35 36 37 38 39 40 41 42 43 44 45 46 47 48 49 50

000
ASUS43 KDMX 220907
RWRIA

WEATHER ROUNDUP FOR IOWA
NATIONAL WEATHER SERVICE DES MOINES IA
300 AM CST MON DEC 22 2014

NOTE: "FAIR" INDICATES FEW OR NO CLOUDS BELOW 12,000 FEET WITH NO
SIGNIFICANT WEATHER AND/OR OBSTRUCTIONS TO VISIBILITY.

* - THESE STATIONS ARE NOT NWS STATIONS...THUS NOT UNDER NWS
QUALITY CONTROL.  THEY ALSO DO NOT REPORT WEATHER SUCH
AS PRECIPITATION OR FOG.

IAZ001>003-012>014-020>022-031>034-043>046-221000-
   NORTHWEST IOWA

CITY           SKY/WX    TMP DP  RH WIND       PRES   REMARKS
CARROLL *      CLOUDY    41  41 100 S15G22    29.62F FOG
CHEROKEE *     CLOUDY    41  41 100 S15       29.58F FOG
DENISON *      CLOUDY    41  41 100 S17G23    29.58F
LE MARS *      MIX PCPN  43  41  93 S14G21    29.55F
ORANGE CITY *  DRIZZLE   41  39  93 S9        29.55S
SHELDON *      CLOUDY    39  39 100 S16       29.54F FOG     WCI  30
SIOUX CITY     LGT RAIN  43  41  93 S14       29.55F FOG
SPENCER        LGT RAIN  40  38  93 S15       29.58F FOG     WCI  32
STORM LAKE *   CLOUDY    39  39 100 S17       29.59F FOG     WCI  30
$$

IAZ055>058-069>071-079>083-090>094-221000-
   SOUTHWEST IOWA

CITY           SKY/WX    TMP DP  RH WIND       PRES   REMARKS
ATLANTIC *     CLOUDY    41  41 100 S13       29.62F FOG
AUDUBON *      CLOUDY    39  36  87 S9        29.63F FOG     WCI  33
CLARINDA *     CLOUDY    43  39  87 S10       29.66F
COUNCIL BLFS * CLOUDY    43  43 100 S15       29.59S FOG
CRESTON *      CLOUDY    39  39 100 S14G20    29.67S WCI  31
HARLAN  *      CLOUDY    41  41 100 S15G21    29.64F FOG
LAMONI         CLOUDY    39  37  92 SE10      29.69F WCI  32
RED OAK *      CLOUDY    43  41  93 S14       29.63F FOG
SHENANDOAH *   MIX PCPN  43  43 100 SE14G21   29.63F
$$

IAZ047>049-059>061-072>074-084-221000-
   CENTRAL IOWA

CITY           SKY/WX    TMP DP  RH WIND       PRES   REMARKS
AMES           CLOUDY    40  38  93 SE13      29.69F FOG     WCI  32
ANKENY *       CLOUDY    41  39  93 S13       29.70F
CHARITON *     CLOUDY    39  37  93 SE13G23   29.71F WCI  32
DES MOINES     CLOUDY    41  38  89 S14       29.70F
GRINNELL*      CLOUDY    37  36  93 SE14      29.75F WCI  29
KNOXVILLE *    LGT RAIN  39  37  93 SE13G18   29.71F WCI  32
MARSHALLTOWN   CLOUDY    38  37  97 SE13      29.72F FOG     WCI  30
PELLA *        LGT RAIN  39  37  93 SE9       29.75F WCI  33
PERRY *        CLOUDY    41  41 100 S14G21    29.66F FOG
$$

IAZ004>006-015-016-023>025-035-036-221000-
   NORTH CENTRAL IOWA

CITY           SKY/WX    TMP DP  RH WIND       PRES   REMARKS
ALGONA *       CLOUDY    39  39 100 SE17      29.64F FOG     WCI  30
CLARION *      CLOUDY    39  39 100 S16       29.67F FOG     WCI  30
ESTHERVILLE    LGT RAIN  38  38 100 S20       29.60F FOG     WCI  28
FORT DODGE *   CLOUDY    39  37  93 S12G20    29.66F WCI  32
MASON CITY     LGT RAIN  37  36  96 SE16      29.70F FOG     WCI  28
FOREST CITY *  CLOUDY    37  36  93 SE15G22   29.67F FOG     WCI  28
IOWA FALLS *   RAIN      39  37  93 SE16      29.71F WCI  30
$$

IAZ007>011-017>019-026>030-037>042-050>054-066-221000-
   NORTHEAST IOWA

CITY           SKY/WX    TMP DP  RH WIND       PRES   REMARKS
CEDAR RAPIDS   CLOUDY    36  34  92 S13       29.79F FOG     WCI  27
CHARLES CITY * CLOUDY    36  36 100 SE14G20   29.74F FOG     WCI  27
CLINTON *      CLOUDY    36  30  80 SE14      29.89F WCI  27
DECORAH *      CLOUDY    34  34 100 SE12G18   29.77F FOG     WCI  25
DUBUQUE        CLOUDY    33  31  92 S15       29.84F FOG     WCI  23
MONTICELLO *   CLOUDY    36  34  93 SE9       29.83F WCI  29
OELWEIN *      CLOUDY    36  34  93 SE14      29.79S FOG     WCI  27
WATERLOO       LGT RAIN  37  36  96 SE13G23   29.76F FOG     WCI  29
$$

IAZ064-065-067-068-078-221000-
   EAST CENTRAL IOWA

CITY           SKY/WX    TMP DP  RH WIND       PRES   REMARKS
DAVENPORT      CLOUDY    36  30  79 SE16      29.86F WCI  26
IOWA CITY      CLOUDY    36  33  89 SE8       29.83F WCI  30
MT. PLEASANT * CLOUDY    37  32  81 SE14      29.82F WCI  29
MUSCATINE *    CLOUDY    39  32  75 SE10G16   29.84F WCI  32
QUAD CITIES    CLOUDY    36  31  82 S12       29.86F WCI  28
$$

IAZ062-063-075>077-085>089-095>099-221000-
   SOUTHEAST IOWA

CITY           SKY/WX    TMP DP  RH WIND       PRES   REMARKS
BURLINGTON     CLOUDY    40  33  76 SE9       29.84F WCI  34
FAIRFIELD *    CLOUDY    39  34  81 SE13      29.79F WCI  32
FORT MADISON * CLOUDY    39  36  87 SE7       29.84F WCI  34
KEOKUK *       CLOUDY    39  34  81 SE8       29.81F WCI  34
OSKALOOSA *    CLOUDY    37  36  93 SE14      29.77F WCI  29
CENTERVILLE *  LGT RAIN  37  37 100 SE10      29.75F WCI  30
OTTUMWA        CLOUDY    39  34  82 S14       29.76F WCI  31
WASHINGTON *   CLOUDY    37  37 100 S14G20    29.81F WCI  29
$$

ABBREVIATIONS USED IN REMARKS
   TC - TEMPERATURES IN CELSIUS
  WCI - WIND CHILL INDEX
   HX - HEAT INDEX
  VSB - VISIBILITY
$$




USA.gov is the U.S. government's official web portal to all federal, state and local government web resources and services.